Orlando Golden Classic - LOFT FLY

Station: Inventory - T Race

Distance: 1 Miles    

Release: 04-Aug-2022 09:00

Weather Release:    Arrival:

Wind at Release:     Wind at Arrival:

Temp at Release: °    Temp at Arrival: °

Lofts: 266

Birds: 1274

Clocked: 1273

Good Luck to Everyone!
Drops Pos Breeder Pigeon Name Color Sex Ent Arrival Speed To Win Elg Pd
1 Genesis Syndicate Loft - AZ 0636-AU22-GENE BB H 1 11:27:14.06 11.954 00:00:00 Yes
1 Bryan Maier - PA 0620-IF22-MAIE BB H 1 11:27:14.07 11.954 00:00:00 Yes
1 Ganus Family Loft - IN 0747-AU22-GFL BB C 1 11:27:14.09 11.954 00:00:00 Yes
4 JAZZY LOFT - FL 0216-AU22-JAZZ Guess Who BB H 1 11:27:14.94 11.953 00:00:01 Missing
5 Oscar Rodriguez Loft - FL 0050-AU22-JAX BC H 1 11:27:18.47 11.948 00:00:04 Yes
6 Remedio Brand - FL 6606-AU22-AA BC H 1 11:27:22.18 11.943 00:00:08 Yes
7 Erp-Duviel Team - GA 2715-AU22-NEA BC H 1 11:27:24.02 11.940 00:00:10 Yes
8 Javier Gonzalez Loft - FL 38804-AU22-ARPU DC C 1 11:27:28.48 11.934 00:00:15 Yes
9 Ignacio Family Loft - FL 3530-AU22-HRPC BB H 1 11:27:32.30 11.929 00:00:19 Yes
10 Cubas Lofts - FL 5783-AU22-AA BBWF C 1 11:27:33.76 11.927 00:00:20 Yes
11 Miranda And Maria - FL 0001-AU22-MIRA BB H 1 11:27:37.58 11.922 00:00:24 Yes
12 Tian Loft - FL 41109-AU22-ARPU BB H 1 11:27:43.12 11.915 00:00:29 Yes
13 Rottweiler Company Loft - MI 0013-AU22-ROPW BB H 1 11:27:43.46 11.914 00:00:30 Yes
14 A P C Loft - TX 22074-AU22-APC BB C 1 11:27:56.97 11.896 00:00:43 Missing
15 1776 Loft 3 - PA 50799-AU22-ARPU SIL H 1 11:28:02.65 11.888 00:00:49 Yes
16 3 Stars & A Sun - TX 0409-AU22-3STA BB C 1 11:28:04.04 11.886 00:00:51 Yes
17 Miller / Eberst - FL 0996-AU22-CCIF BB C 1 11:28:05.74 11.884 00:00:52 Yes
17 Abigail Loft - FL 0737-AU22-HRPC BB C 1 11:28:06.07 11.884 00:00:52 Yes
19 Los Cubanitos Loft - FL 0402-AU22-JEDD I have a good one BB H 1 11:28:08.98 11.880 00:00:55 Yes
20 Juan Ganga - FL 1030-AU22-ALON BB H 1 11:28:09.89 11.879 00:00:56 Yes
21 JAZZY LOFT - FL 0222-AU22-JAZZ Versatile BB H 2 11:28:11.78 11.876 00:00:58 Yes
21 PNWC - ID 0045-IF22-PNWC “PAIR 1” SPL H 1 11:28:11.86 11.876 00:00:58 Yes
21 Evolution Roly Loft - FL 7610-AU22-AA RED H 1 11:28:12.23 11.876 00:00:58 Yes
24 Ignacio Family Loft - FL 3517-AU22-HRPC BB H 2 11:28:12.54 11.875 00:00:59 Yes
24 Arch Haven Loft - IN 2207-AU22-ARCH BC H 1 11:28:12.63 11.875 00:00:59 Missing
26 Ignacio Family Loft - FL 3513-AU22-HRPC BB H 3 11:28:14.13 11.873 00:01:00 Yes
26 1776 Loft 3 - PA 50724-AU22-ARPU BB H 2 11:28:14.48 11.873 00:01:00 Yes
28 Liberty Loft - MA 26825-AU22-FOYS BB C 1 11:28:14.80 11.872 00:01:01 Missing
29 Oscar Rodriguez Loft - FL 0008-AU22-JAX BBWF H 2 11:28:17.16 11.869 00:01:03 Yes
30 Sagua Loft - FL 46100-AU22-ARPU Bandurria BBWF C 1 11:28:17.87 11.868 00:01:04 Yes
30 Gibara Loft - FL 2677-AU22-HRPC BB H 1 11:28:18.18 11.868 00:01:04 Yes
32 Fan Family Loft - NS 5029-CU22-CRPU BC H 1 11:28:18.26 11.867 00:01:05 Yes
33 Dac Family Loft - MI 0019-AU22-DAC BC C 1 11:28:19.56 11.866 00:01:06 Yes
34 Da-Dong - WI 1643-AU22-RAC BBWF H 1 11:28:21.86 11.863 00:01:08 Yes
34 Aparicio Loft - FL 1004-AU22-ARPU DC C 1 11:28:21.96 11.863 00:01:08 Yes
36 Castellon Loft - TN 11024-AU22-NASH BB H 1 11:28:23.19 11.861 00:01:09 Yes
36 TheVikingsLoft - FL 26347-AU22-FOYS CHOC C 1 11:28:23.27 11.861 00:01:09 Yes
38 Brito Loft - FL 94482-AU22-ARPU BB C 1 11:28:24.27 11.859 00:01:11 Yes
39 Manicaragua Loft Ramo And Gato - TX 0004-AU22-MIRA BBWF H 1 11:28:25.71 11.858 00:01:12 Yes
40 Mikimbin & The Cuban Indian Loft - FL 12924-AU22-AA BC C 1 11:28:26.23 11.857 00:01:12 Yes
41 Cr7 Loft - CA 36065-AU22-ARPU Broder alex BB C 1 11:28:26.56 11.856 00:01:13 Missing
42 Mely’s Loft - TX 0701-AU22-BATI SIL C 1 11:28:28.16 11.854 00:01:15 Yes
43 JuliettaFamilyLoft - FL 0009-AU22-JULI BBWF H 1 11:28:31.74 11.850 00:01:18 Missing
44 Villa Loft - FL 49433-AU22-ARPU BB H 1 11:28:32.49 11.849 00:01:18 Yes
45 Green Arrow Loft - FL 0022-AU22-ARRO 32038 ---4194-95 BB H 1 11:28:33.10 11.848 00:01:19 Yes
45 1776 Loft 3 - PA 50702-AU22-ARPU BB H 3 11:28:33.18 11.848 00:01:19 Yes
47 ThunderwingRacingLoft - GA 0778-AU22-GA BB H 1 11:28:39.55 11.839 00:01:26 Yes
48 La negra y el animal - FL 0043-AU22-ANIM BB H 1 11:28:40.76 11.838 00:01:27 Yes
49 Aaron Loft - FL 4377-AU22-AA BC C 1 11:28:41.56 11.836 00:01:28 Yes
50 A-Lo-Loft - NY 0030-AU22-ALOL ☯️☯️☯️☯️ BC H 1 11:28:42.65 11.835 00:01:29 Yes
50 A Different Breed - 12903-AU22-AA BC C 1 11:28:43.01 11.835 00:01:29 Yes
52 Carrerafrenchie Loft - FL 0067-AU22-RFL BC H 1 11:28:43.87 11.833 00:01:30 Yes
52 Irish Syndicate - AZ 7022-AU22-IRIS BC H 1 11:28:44.16 11.833 00:01:30 Yes
52 Yasiel & Noel Loft - FL 1794-IF22-FOYS CHOC H 1 11:28:44.57 11.833 00:01:30 Yes
55 Remedio Brand - FL 6601-AU22-AA BB H 2 11:28:45.52 11.831 00:01:32 Yes
55 Ganus Family Loft - IN 0304-AU22-GFL BBSP H 2 11:28:45.91 11.831 00:01:32 Yes
57 Ignacio Family Loft - FL 3525-AU22-HRPC BBWF C 4 11:28:46.21 11.830 00:01:33 Yes
58 Santico Lof - FL 1706-AU22-HRPC BC H 1 11:28:47.60 11.828 00:01:34 Yes
59 Los 4 Loft - FL 7214-AU22-AA BC C 1 11:28:48.98 11.827 00:01:35 Yes
60 Amer Loft - GA 0175-IF22-AFL BB C 1 11:28:49.30 11.826 00:01:36 Yes
60 JAZZY LOFT - FL 0211-AU22-JAZZ Short Temper BB C 3 11:28:49.64 11.826 00:01:36 Yes
60 Las Tunas Lofts - FL 0030-AU22-JULI BB H 1 11:28:49.72 11.826 00:01:36 Yes
63 Tamayos Loft - FL 0003-AU22-YADY BB H 1 11:28:52.51 11.822 00:01:39 Yes
64 Machado Loft - FL 66712-AU22-ARPU BB C 1 11:28:54.10 11.820 00:01:40 Yes
65 The Rios Family Loft - NC 0012-AU22-ANGE THONE13XFIONA2/1823 BB H 1 11:28:54.72 11.819 00:01:41 Missing
66 OscarSandor - FL 0013-AU22-OSCA BB C 1 11:28:55.33 11.818 00:01:42 Yes
67 Erp-Duviel Team - GA 2704-AU22-NEA BB H 2 11:28:58.02 11.815 00:01:44 Yes
68 GreatWall - MS 2203-AU22-JIMM BC H 1 11:28:59.22 11.813 00:01:45 Yes
69 ThunderwingRacingLoft - GA 0777-AU22-GA BB H 2 11:29:00.67 11.811 00:01:47 Yes
70 Ed Skwiat - IN 0951-AU22-VITA BCWF C 1 11:29:02.91 11.808 00:01:49 Yes
71 Liu s Loft - MO 0602-AU22-BAIZ BB C 1 11:29:05.93 11.804 00:01:52 Missing
71 Anunaki - FL 2724-AU22-GHC BC H 1 11:29:05.94 11.804 00:01:52 Yes
73 Thunder Birds Breeding Loft - TX 56467-AU22-ARPU TIGER LILY BB C 1 11:29:07.01 11.803 00:01:53 Yes
74 Barbaro RG Loft - FL 1312-AU22-JAX DC C 1 11:29:08.42 11.801 00:01:55 Yes
74 98 M J Loft - PA 9833-AU22-JIAN BB C 1 11:29:08.44 11.801 00:01:55 Yes
76 Miranda And Maria - FL 0008-AU22-MIRA BBSP H 2 11:29:09.02 11.800 00:01:55 Yes
77 Cardenas Loft - FL 1323-AU22-HRPC BC C 1 11:29:09.70 11.799 00:01:56 Yes
78 Palmeto Loft - FL 1578-AU22-RLL BB H 1 11:29:10.92 11.798 00:01:57 Yes
78 Guerra-Rodriguez-Varela - FL 3603-AU22-AA GRIZ H 1 11:29:11.03 11.798 00:01:57 Yes
80 A P C Loft - TX 22027-AU22-APC BB C 2 11:29:11.50 11.797 00:01:58 Missing
81 Tamayos Loft - FL 5405-AU22-ARPU BB H 2 11:29:11.84 11.796 00:01:58 Yes
82 JuliettaFamilyLoft - FL 0071-AU22-TUNA BC H 2 11:29:12.62 11.795 00:01:59 Yes
83 Ganus Family Loft - IN 0303-AU22-GFL BB H 3 11:29:14.67 11.793 00:02:01 Yes
84 Liu s Loft - MO 0605-AU22-BAIZ BCWF H 2 11:29:15.09 11.792 00:02:01 Yes
85 Redmon Loft - FL 39302-AU22-ARPU BB H 1 11:29:16.07 11.791 00:02:02 Yes
85 Lazaro Espinoza - FL 15085-AU22-ARPU BB C 1 11:29:16.18 11.791 00:02:02 Yes
87 Karinas Loft - FL 47801-AU22-ARPU BB H 1 11:29:16.49 11.790 00:02:03 Yes
87 98 M J Loft - PA 9828-AU22-JIAN BCSP H 2 11:29:16.61 11.790 00:02:03 Yes
89 Las Tunas Lofts - FL 0019-AU22-TUNA BB C 2 11:29:19.51 11.786 00:02:06 Yes
90 Hanely Loft - FL 1259-AU22-THP BC H 1 11:29:20.99 11.784 00:02:07 Yes
90 R15 - FL 46077-AU22-ARPU BB C 1 11:29:21.40 11.784 00:02:07 Yes
92 Alferez loft - Gerardo temores - 0561-AU22-GT BB H 1 11:29:21.75 11.783 00:02:08 Yes
93 Chachi Loft - FL 27965-AU22-JEDD BB H 1 11:29:23.59 11.781 00:02:10 Yes
94 1776 Loft 3 - PA 50899-AU22-ARPU DC H 4 11:29:23.97 11.780 00:02:10 Yes
95 OscarSandor - FL 0038-AU22-OSCA BB H 2 11:29:24.96 11.779 00:02:11 Yes
95 R15 - FL 46076-AU22-ARPU BB H 2 11:29:25.36 11.779 00:02:11 Yes
97 Marlee Doms - IN 0027-AU22-MOJO BBSP C 1 11:29:26.29 11.777 00:02:13 Yes
97 Mya Loft - FL 34736-AU22-AA BC H 1 11:29:26.60 11.777 00:02:13 Yes
99 Xiao F Jiang Loft - FL 21709-AU22-ARPU BB C 2 11:29:27.06 11.776 00:02:14 Yes
99 Team Usa Sigler Loft - FL 65097-AU22-ARPU Brave Heart BB H 1 11:29:27.39 11.776 00:02:14 Yes

There are 1273 bird records

Note: These Race Results are unofficial and subject to change until verified by the Race Committee and declared final.

 

UNTIL FUTHER NOTICE

Ship Birds to:

California Classic attn: John

P.O Box 5861 Yuma, AZ 85366

cell 619-454-7696


windy
Click for Forecast for 32825 from weatherUSA